This demonstration page uses our WeatherBlox Daily Observations layout. Learn more.

Left ArrowRight Arrow

Hourly Observations for October 5, 2016

Temp ( °F °C ) Dew Point ( °F °C ) Humidity (%) Winds ( mph kmh ) Pressure ( in mb ) Visibility ( mi km ) Precip ( " mm )
12:15 am 00:15 Partly Cloudy 59 15 59 15 100 100 N N/A 30.30 1026 10 16 N/A
12:35 am 00:35 Clear 55 13 55 13 100 100 WNW 3 6 30.30 1026 10 16 N/A
12:55 am 00:55 Clear 55 13 55 13 100 100 NW 5 7 30.30 1026 10 16 N/A
1:15 am 01:15 Clear 57 14 57 14 100 100 N 5 7 30.30 1026 10 16 N/A
1:35 am 01:35 Clear 57 14 57 14 100 100 NNW 3 6 30.30 1026 10 16 N/A
1:55 am 01:55 Clear 57 14 57 14 100 100 N 5 7 30.30 1026 10 16 N/A
2:15 am 02:15 Clear 55 13 55 13 100 100 N 6 9 30.30 1026 10 16 N/A
2:35 am 02:35 Clear 57 14 57 14 100 100 N 6 9 30.30 1026 10 16 N/A
2:55 am 02:55 Clear 55 13 55 13 100 100 N 3 6 30.30 1026 10 16 N/A
3:15 am 03:15 Clear 55 13 55 13 100 100 N 6 9 30.30 1026 10 16 N/A
3:35 am 03:35 Clear 55 13 55 13 100 100 N 6 9 30.30 1026 10 16 N/A
3:55 am 03:55 Mostly Cloudy 57 14 57 14 100 100 N 7 11 30.30 1026 10 16 N/A
4:15 am 04:15 Cloudy 57 14 57 14 100 100 N 5 7 30.30 1026 10 16 N/A
4:35 am 04:35 Cloudy 57 14 57 14 100 100 N 5 7 30.30 1026 10 16 N/A
4:55 am 04:55 Cloudy 59 15 57 14 94 94 NNE 7 11 30.30 1026 10 16 N/A
5:15 am 05:15 Cloudy 57 14 57 14 100 100 NNE 6 9 30.30 1026 10 16 N/A
5:35 am 05:35 Cloudy 57 14 57 14 100 100 N 6 9 30.30 1026 10 16 N/A
5:55 am 05:55 Cloudy 57 14 57 14 100 100 N 5 7 30.30 1026 10 16 N/A
6:15 am 06:15 Mostly Cloudy 57 14 55 13 94 94 NNE 3 6 30.33 1027 10 16 N/A
6:35 am 06:35 Mostly Cloudy 57 14 55 13 94 94 NNE 3 6 30.33 1027 10 16 N/A
6:55 am 06:55 Mostly Cloudy 55 13 55 13 100 100 NNE 5 7 30.33 1027 10 16 N/A
7:15 am 07:15 Partly Cloudy 55 13 55 13 100 100 NNE 3 6 30.33 1027 10 16 N/A
7:35 am 07:35 Mostly Cloudy 55 13 55 13 100 100 N 5 7 30.33 1027 10 16 N/A
7:55 am 07:55 Mostly Cloudy 55 13 55 13 100 100 NNE 5 7 30.33 1027 7 11 N/A
8:15 am 08:15 Cloudy 59 15 57 14 94 94 NNE 6 9 30.33 1027 10 16 N/A
8:35 am 08:35 Cloudy 59 15 59 15 100 100 NE 5 7 30.33 1027 10 16 N/A
8:55 am 08:55 Cloudy 59 15 59 15 100 100 NNE 7 11 30.33 1027 10 16 N/A
9:15 am 09:15 Mostly Cloudy 61 16 59 15 94 94 NE 3 6 30.33 1027 10 16 N/A
9:35 am 09:35 Partly Cloudy 63 17 57 14 83 83 NE 8 13 30.33 1027 10 16 N/A
9:55 am 09:55 Mostly Cloudy 63 17 57 14 83 83 NE 8 13 30.36 1028 10 16 N/A
10:15 am 10:15 Cloudy 63 17 57 14 83 83 NNE 6 9 30.36 1028 10 16 N/A
10:35 am 10:35 Cloudy 64 18 55 13 73 73 NNE 7 11 30.36 1028 10 16 N/A
10:55 am 10:55 Partly Cloudy 64 18 54 12 68 68 NE 7 11 30.36 1028 10 16 N/A
11:15 am 11:15 Partly Cloudy 66 19 54 12 64 64 E 7 11 30.33 1027 10 16 N/A
11:35 am 11:35 Partly Cloudy 66 19 54 12 64 64 NE 6 9 30.33 1027 10 16 N/A
11:55 am 11:55 Mostly Cloudy 66 19 54 12 64 64 NE 5 7 30.33 1027 10 16 N/A
12:15 pm 12:15 Partly Cloudy 66 19 52 11 60 60 N 6 9 30.33 1027 10 16 N/A
12:35 pm 12:35 Sunny 68 20 52 11 56 56 NNE 5 7 30.33 1027 10 16 N/A
12:55 pm 12:55 Sunny 68 20 52 11 56 56 NNE 6 9 30.30 1026 10 16 N/A
1:15 pm 13:15 Sunny 68 20 52 11 56 56 N N/A 30.30 1026 10 16 N/A
1:35 pm 13:35 Sunny 70 21 52 11 53 53 E 5 7 30.30 1026 10 16 N/A
1:55 pm 13:55 Sunny 70 21 52 11 53 53 SE 6 9 30.27 1025 10 16 N/A
2:15 pm 14:15 Partly Cloudy 70 21 52 11 53 53 N N/A 30.27 1025 10 16 N/A
2:35 pm 14:35 Sunny 70 21 52 11 53 53 N 3 6 30.27 1025 10 16 N/A
2:55 pm 14:55 Partly Cloudy 70 21 52 11 53 53 N N/A 30.27 1025 10 16 N/A
3:15 pm 15:15 Partly Cloudy 72 22 52 11 50 50 N 5 7 30.27 1025 10 16 N/A
3:35 pm 15:35 Sunny 72 22 52 11 50 50 NNW 5 7 30.27 1025 10 16 N/A
3:55 pm 15:55 Partly Cloudy 72 22 52 11 50 50 N N/A 30.27 1025 10 16 N/A
4:15 pm 16:15 Partly Cloudy 72 22 52 11 50 50 SSE 3 6 30.27 1025 10 16 N/A
4:35 pm 16:35 Sunny 70 21 52 11 53 53 N N/A 30.27 1025 10 16 N/A
4:55 pm 16:55 Partly Cloudy 72 22 52 11 50 50 S 5 7 30.27 1025 10 16 N/A
5:15 pm 17:15 Mostly Cloudy 72 22 54 12 53 53 SE 6 9 30.27 1025 10 16 N/A
5:35 pm 17:35 Partly Cloudy 72 22 52 11 50 50 N N/A 30.27 1025 10 16 N/A
5:55 pm 17:55 Mostly Cloudy 70 21 54 12 57 57 SSE 3 6 30.27 1025 10 16 N/A
6:15 pm 18:15 Partly Cloudy 70 21 54 12 57 57 N N/A 30.27 1025 10 16 N/A
6:35 pm 18:35 Sunny 68 20 54 12 60 60 N N/A 30.27 1025 10 16 N/A
6:55 pm 18:55 Clear 66 19 54 12 64 64 N N/A 30.27 1025 10 16 N/A
7:15 pm 19:15 Clear 66 19 55 13 68 68 SE 3 6 30.27 1025 10 16 N/A
7:35 pm 19:35 Clear 64 18 55 13 73 73 N N/A 30.27 1025 10 16 N/A
7:55 pm 19:55 Clear 61 16 57 14 88 88 N N/A 30.27 1025 10 16 N/A
8:15 pm 20:15 Clear 59 15 57 14 94 94 N N/A 30.27 1025 10 16 N/A
8:35 pm 20:35 Clear 59 15 57 14 94 94 N N/A 30.27 1025 10 16 N/A
8:55 pm 20:55 Clear 59 15 55 13 88 88 SSW 7 11 30.27 1025 10 16 N/A
9:15 pm 21:15 Clear 57 14 55 13 94 94 N N/A 30.27 1025 10 16 N/A
9:35 pm 21:35 Clear 55 13 55 13 100 100 N N/A 30.30 1026 10 16 N/A
9:55 pm 21:55 Clear 59 15 55 13 88 88 N N/A 30.27 1025 10 16 N/A
10:15 pm 22:15 Clear 55 13 55 13 100 100 N N/A 30.27 1025 10 16 N/A
10:35 pm 22:35 Clear 55 13 55 13 100 100 N N/A 30.30 1026 10 16 N/A
10:55 pm 22:55 Clear 55 13 55 13 100 100 NW 3 6 30.30 1026 10 16 N/A
11:15 pm 23:15 Clear 54 12 54 12 100 100 N N/A 30.33 1027 10 16 N/A
11:35 pm 23:35 Clear 54 12 54 12 100 100 N N/A 30.33 1027 10 16 N/A
11:55 pm 23:55 Clear 54 12 54 12 100 100 N N/A 30.33 1027 10 16 N/A

Powered by AerisWeather